Flag for Belarus Weather past 2 weeks in Barysaw, Belarus

Now
86 °F

Passing clouds.


Feels Like: 83 °F
Forecast: 63 / 83 °F
Wind: 6 mph from West

Location: Minsk

Current Time: Jul 4, 2015 at 7:10:19 PM

Latest Report: Jul 4, 2015 at 6:30 PM


Visibility: N/A

Pressure: 30.18 "Hg

Humidity: 27%

Dew point: 48 °F

Location of BarysawLocation

Historic Weather in Barysaw — Graph

°F

Barysaw temperature yesterday

Maximum temperature yesterday: 81 °F (at 2:30 PM)
Minimum temperature yesterday: 50 °F (at 3:00 AM)
Average temperature yesterday: 68 °F

Past Weeks' High & Low Weather Summary

 TemperatureHumidityPressure
High88 °F (Jul 4, 4:30 PM)100% (Jun 20, 5:00 AM)30.42 "Hg (Jun 20, 5:00 AM)
Low45 °F (Jun 23, 3:00 AM)24% (Jul 3, 11:30 AM)29.80 "Hg (Jun 19, 6:00 PM)
Average62 °F63%30.03 "Hg
* Reported Jun 19 6:00 PM — Jul 4 6:00 PM, Barysaw, Weather by CustomWeather, © 2015

Note: Actual official high and low records may vary slightly from our data, if they occured in-between our weather recording intervals... More about our weather records

Advertising

Barysaw weather history for previous 24 hours

 ConditionsComfort  
Time TempWeatherWind HumidityBarometerVisibility
6:00 PM
Sat, Jul 4
86 °FPassing clouds.6 mph27%30.18 "HgN/A
5:30 PM88 °FPassing clouds.8 mph27%30.21 "HgN/A
5:00 PM86 °FPassing clouds.8 mph27%30.21 "HgN/A
4:30 PM88 °FSunny.6 mph25%30.21 "Hg10 mi
4:00 PM86 °FPassing clouds.8 mph27%30.24 "HgN/A
3:30 PM86 °FPassing clouds.6 mph27%30.24 "HgN/A
3:00 PM86 °FPassing clouds.8 mph27%30.24 "HgN/A
2:30 PM86 °FSunny.6 mph27%30.24 "Hg10 mi
2:00 PM84 °FPassing clouds.8 mph29%30.27 "HgN/A
1:30 PM84 °FSunny.6 mph29%30.27 "Hg10 mi
1:00 PM84 °FSunny.6 mph29%30.30 "Hg10 mi
12:30 PM82 °FPassing clouds.6 mph30%30.30 "HgN/A
12:00 PM82 °FPassing clouds.6 mph28%30.30 "HgN/A
11:30 AM82 °FPassing clouds.6 mph28%30.30 "HgN/A
11:00 AM82 °FPassing clouds.6 mph30%30.30 "HgN/A
10:30 AM81 °FPassing clouds.3 mph37%30.33 "HgN/A
10:00 AM79 °FPassing clouds.6 mph39%30.33 "HgN/A
9:30 AM77 °FPassing clouds.6 mph44%30.33 "HgN/A
9:00 AM77 °FPassing clouds.3 mph44%30.33 "HgN/A
8:30 AM73 °FPassing clouds.3 mph50%30.33 "HgN/A
8:00 AM72 °FSunny.3 mph50%30.33 "Hg10 mi
7:30 AM70 °FSunny.No wind64%30.36 "Hg10 mi
7:00 AM64 °FSunny.No wind73%30.36 "Hg10 mi
6:30 AM59 °FSunny.No wind77%30.36 "Hg10 mi
6:00 AM55 °FSunny.No wind88%30.36 "Hg10 mi
5:30 AM54 °FClear.No wind88%30.36 "Hg10 mi
5:00 AM52 °FClear.No wind88%30.36 "Hg10 mi
4:30 AM50 °FClear.No wind94%30.36 "Hg10 mi
4:00 AM54 °FClear.No wind82%30.36 "Hg10 mi
3:30 AM54 °FClear.No wind88%30.36 "Hg10 mi
3:00 AM55 °FClear.No wind82%30.36 "Hg10 mi
2:30 AM55 °FClear.No wind82%30.36 "Hg10 mi
2:00 AM57 °FClear.No wind77%30.36 "Hg10 mi
1:30 AM57 °FClear.No wind82%30.39 "Hg10 mi
1:00 AM57 °FClear.No wind82%30.39 "Hg10 mi
12:30 AM57 °FClear.No wind82%30.39 "Hg10 mi
12:00 AM59 °FClear.No wind77%30.39 "Hg10 mi
11:30 PM
Fri, Jul 3
61 °FClear.No wind72%30.36 "Hg10 mi
11:00 PM61 °FClear.No wind72%30.36 "Hg10 mi
10:30 PM64 °FSunny.No wind64%30.39 "Hg10 mi
10:00 PM66 °FSunny.No wind64%30.39 "Hg10 mi
9:30 PM68 °FSunny.No wind60%30.36 "Hg10 mi
9:00 PM73 °FSunny.No wind47%30.36 "Hg10 mi
8:30 PM79 °FSunny.3 mph32%30.36 "Hg10 mi
8:00 PM81 °FSunny.6 mph30%30.39 "Hg10 mi
7:30 PM81 °FPassing clouds.6 mph28%30.39 "HgN/A
7:00 PM81 °FSunny.6 mph28%30.39 "Hg10 mi
Weather by CustomWeather, © 2015

See weather overviewHow to use our weather pages